Voltar ao catálogo

YAOGAN-39 04C

AtivoMilitarVLEO
NORAD 58145·PAYLOAD·🇨🇳 China

Lançado Oct 23, 2023 de Xichang Satellite Launch Center

Loading…

Próximas Passagens (próximas 24 horas)

TLE

AtualizadoSource: Space-Track

Época: Sep 14, 2026, 05:41 UTC

1 58145U 23163E   26257.23747609  .00003873  00000-0  19514-3 0  9992
2 58145  34.9904 173.7604 0002288 259.4216 100.6239 15.16642825160852

Acompanhe YAOGAN-39 04C em tempo real com AllMySat

Download on the App Store